weather.gov     
National Weather Service

Regional Weather Roundup
NWS Homepage
This page is being discontinued on March 12, 2014.
The same data is available at this site. Please update your bookmarks.
Thank you, and we apologize for the inconvenience.
Please send an email to SR-SRH.Webmaster@noaa.gov with any concerns.


Current Version
Previous Version:    01  02  03  04  05  06  07  08  09  10  11  12  13  14  15  16  17  18  19  20  21  22  23  24  25  26  
[Printable]
564
ASUS45 KSLC 231410
RWRUT

UTAH REGIONAL WEATHER ROUNDUP
NATIONAL WEATHER SERVICE SALT LAKE CITY UT
700 AM MST SUN NOV 23 2014

UTZ001>011-023>025-231500-

NORTHERN UTAH

CITY           SKY/WX    TMP DP  RH WIND       PRES   REMARKS
BRIGHAM CITY   CLOUDY    35  25  67 NW7       30.13R WCI  29
HILL AFB       LGT SNOW  30  28  93 N6        30.12R FOG     WCI  24
LOGAN          LGT SNOW  31  29  92 SE6       30.09R FOG     WCI  25
OGDEN          LGT SNOW  32  27  81 NW7       30.12R WCI  26
PROVO AIRPORT  MOCLDY    34  21  60 NW16G32   30.11R WCI  23
SALT LAKE CITY FLURRIES  34  27  75 N14       30.14R WCI  25
VERNAL         CLOUDY    30  29  96 SW5       29.92R WCI  25
WENDOVER       CLEAR     34  16  47 NW35G44   30.15F WCI  19
HEBER CITY     CLOUDY    27  23  86 E7        30.04R WCI  19
WEST JORDAN    CLOUDY    34  27  75 W12       30.13R WCI  25

$$

UTZ012>022-026-027-231500-

SOUTHERN/CENTRAL UTAH

CITY           SKY/WX    TMP DP  RH WIND       PRES   REMARKS
BLANDING       MOCLDY    33  26  75 NW26G35   29.96R WCI  19
BRYCE CANYON   CLEAR     22  15  75 NW17G26   30.05R WCI   8
CEDAR CITY     CLEAR     27  22  81 NE7       30.14R WCI  19
DELTA          CLEAR     30  22  74 NW20G26   30.15R WCI  17
MILFORD        CLEAR     28  22  78 N6        30.15R WCI  22
MOAB/CYNLANDS  CLEAR     36  20  52 W22       29.93R WCI  25
PRICE          PTCLDY    28  15  58 NW16G24   29.96R WCI  16
ST GEORGE      PTSUNNY   45  16  31 W5        30.17R
KANAB          CLEAR     28  12  50 CALM      30.15R

$$

REGIONAL REPORTS     COLORADO/ARIZONA

CITY           SKY/WX    TMP DP  RH WIND       PRES   REMARKS
CRAIG, CO      CLOUDY    25  21  85 N3        29.89R
GRAND JUNCTION CLOUDY    31  31 100 NE6       29.89R WCI  25
RIFLE          MOCLDY    24  22  91 SE5       29.88R WCI  18
MONTROSE       CLOUDY    33  28  81 CALM      29.88R
CORTEZ         CLEAR     35  26  69 NW12G25   29.90R WCI  27
PAGE, AZ       NOT AVBL
GRAND CANYON   CLEAR     34  18  52 N10G17    30.08R WCI  26
KINGMAN        CLEAR     46  17  31 N16       30.13R
FLAGSTAFF      CLEAR     34  15  46 NW9G20    30.04R WCI  27

$$

REGIONAL REPORTS    NEVADA/IDAHO/WYOMING

CITY           SKY/WX    TMP DP  RH WIND       PRES   REMARKS
LAS VEGAS, NV  CLEAR     54  17  23 N15G22    30.15R
ELY            PTCLDY    26  25  96 NW8       30.24R WCI  18
ELKO           PTCLDY    30  20  66 CALM      30.29R
POCATELLO, ID  PTCLDY    29  26  89 SW17      30.11R WCI  17
BURLEY         CLEAR     30  24  78 W17G24    30.15R WCI  18
EVANSTON, WY   CLOUDY    22  17  81 W10       29.98R WCI  11
ROCK SPRINGS   CLOUDY    24  19  81 W28G35    29.88R WCI   7
KEMMERER       LGT SNOW  23  21  93 W22G35    29.93R WCI   8

$$




U.S. Dept. of Commerce
NOAA National Weather Service
1325 East West Highway
Silver Spring, MD 20910
E-mail: w-nws.webmaster@noaa.gov
Page last modified: May 16, 2007
NATIONAL WEATHER SERVICE: for Safety, for Work, for Fun - FOR LIFE